Mayo, Yukon Territory

12:24 AM PDT on October 18, 2017 (GMT -0700)
Mayo

Weather History for CYMA - January, 2013

Change the Weather History Date:

Thursday, January 17, 2013

  Actual Average Record
Temperature  
Mean Temperature 6 °F -  
Max Temperature 10 °F 2 °F 29 °F (2015)
Min Temperature 1 °F -19 °F -16 °F (2017)
Degree Days  
Heating Degree Days 58    
Moisture  
Dew Point 0 °F    
Average Humidity 77    
Maximum Humidity 85    
Minimum Humidity 72    
Precipitation  
Precipitation 0.00 in 0.02 in - ()
Sea Level Pressure  
Sea Level Pressure 29.77 in    
Wind  
Wind Speed 6 mph ()    
Max Wind Speed 13 mph    
Max Gust Speed 20 mph    
Visibility 16.8 miles    
Events Snow    
Averages and records for this station are not official NWS values.
T = Trace of Precipitation, MM = Missing Value Source: Averaged Metar Reports

Daily Weather History Graph

Daily Weather History Graph

Search for Another Location

Airport or City:

Trip Planner

Search our weather history database for the weather conditions in past years. The results will help you decide how hot, cold, wet, or windy it might be!

Date:

Astronomy

Jan. 17, 2013 Rise Set
Actual Time 10:18 AM PST 4:09 PM PST
Civil Twilight 9:15 AM PST 5:12 PM PST
Nautical Twilight 8:13 AM PST 6:14 PM PST
Astronomical Twilight 7:17 AM PST 7:11 PM PST
Moon 10:51 AM PST (1/17) 12:37 AM PST (1/17)
Length of Visible Light 7h 57m
Length of Day
5h 50m
Waxing Crescent, 39% of the Moon is Illuminated
Jan 17
Waxing Crescent
Jan 18
First Quarter
Jan 26
Full
Feb 3
Last Quarter
Feb 9
New

Hourly Weather History & Observations

Time (PST) Temp. Windchill Dew Point Humidity Pressure Visibility Wind Dir Wind Speed Gust Speed Precip Events Conditions
12:00 AM 5.0 °F -8.1 °F -2.2 °F 72% 30.00 in 20.0 mi NE 8.1 mph - N/A   Mostly Cloudy
1:00 AM 6.8 °F -6.9 °F -0.4 °F 72% 29.96 in 20.0 mi NE 9.2 mph - N/A   Overcast
2:00 AM 5.0 °F -8.1 °F -2.2 °F 72% 29.94 in 20.0 mi NNE 8.1 mph - N/A   Mostly Cloudy
3:00 AM 5.0 °F -6.9 °F -0.4 °F 78% 29.91 in 20.0 mi North 6.9 mph - N/A   Overcast
4:00 AM 5.0 °F -5.6 °F -0.4 °F 78% 29.85 in 20.0 mi NNE 5.8 mph - N/A   Overcast
5:00 AM 5.0 °F -2.1 °F -0.4 °F 78% 29.81 in 20.0 mi ENE 3.5 mph - N/A   Overcast
6:00 AM 5.0 °F -6.9 °F -0.4 °F 78% 29.77 in 20.0 mi NNE 6.9 mph - N/A   Overcast
7:00 AM 6.8 °F -3.5 °F 1.4 °F 79% 29.73 in 20.0 mi NNE 5.8 mph - N/A   Overcast
8:00 AM 8.6 °F -1.3 °F 3.2 °F 79% 29.70 in 20.0 mi NNE 5.8 mph - N/A   Overcast
8:41 AM - - - N/A% - 10.0 mi East 5.8 mph - N/A   Unknown
9:00 AM 3.2 °F - -2.2 °F 78% 29.68 in 10.0 mi SSE 2.3 mph - N/A Snow Light Snow
10:00 AM 5.0 °F - -2.2 °F 72% 29.66 in 10.0 mi East 2.3 mph - N/A Snow Light Snow
11:00 AM 5.0 °F - -2.2 °F 72% 29.65 in 10.0 mi Calm Calm - N/A Snow Light Snow
12:00 PM 6.8 °F - -0.4 °F 72% 29.65 in 10.0 mi Calm Calm - N/A Snow Light Snow
1:00 PM 6.8 °F - 3.2 °F 85% 29.65 in 5.0 mi Calm Calm - N/A Snow Light Snow
2:00 PM 6.8 °F - 3.2 °F 85% 29.65 in 8.0 mi Calm Calm - N/A Snow Light Snow
3:00 PM 10.4 °F -2.4 °F 6.8 °F 85% 29.65 in 20.0 mi North 9.2 mph - N/A Snow Light Snow
3:37 PM - - - N/A% - 20.0 mi North 8.1 mph - N/A   Overcast
4:00 PM 8.6 °F -4.7 °F 5.0 °F 85% 29.67 in 20.0 mi NNW 9.2 mph - N/A   Overcast
5:00 PM 8.6 °F -2.6 °F 5.0 °F 85% 29.69 in 20.0 mi North 6.9 mph - N/A   Overcast
6:00 PM 8.6 °F -6.3 °F 3.2 °F 79% 29.72 in 20.0 mi North 11.5 mph - N/A   Overcast
7:00 PM 6.8 °F -9.3 °F 1.4 °F 79% 29.75 in 20.0 mi North 12.7 mph 19.6 mph N/A   Mostly Cloudy
8:00 PM 5.0 °F -9.1 °F -2.2 °F 72% 29.78 in 20.0 mi NNE 9.2 mph - N/A   Mostly Cloudy
9:00 PM 5.0 °F -9.1 °F -2.2 °F 72% 29.82 in 20.0 mi North 9.2 mph - N/A   Mostly Cloudy
10:00 PM 3.2 °F -11.3 °F -4.0 °F 72% 29.87 in 20.0 mi North 9.2 mph - N/A   Mostly Cloudy
10:44 PM - - - N/A% - 20.0 mi North 11.5 mph - N/A   Unknown
11:00 PM 1.4 °F -15.3 °F -4.0 °F 78% 29.91 in 10.0 mi NNE 11.5 mph - N/A Snow Light Snow